Measurement date,Total daily rainfall,Mean daily air temperature
Date ,Rainfall,Air temperature
Units: Year month day,Units: millimetre,Units: degree Celsius
2010-10-12,0.2,9.2
2010-10-13,0.0,6.9
2010-10-14,0.2,6.0
2010-10-15,0.0,9.7
2010-10-16,0.0,8.9
2010-10-17,0.2,6.5
2010-10-18,1.0,11.3
2010-10-19,2.4,10.0
2010-10-20,0.8,6.8
2010-10-21,1.0,6.5
2010-10-22,2.0,9.3
2010-10-23,12.6,8.7
2010-10-24,0.4,5.5
2010-10-25,0.2,3.5
2010-10-26,5.0,11.4
2010-10-27,2.2,12.7
2010-10-28,1.4,13.1
2010-10-29,0.0,12.9
2010-10-30,1.6,10.9
2010-10-31,11.0,10.8
2010-11-01,0.6,9.7
2010-11-02,2.6,12.8
2010-11-03,2.6,13.9
2010-11-04,0.2,14.4
2010-11-05,9.0,14.3
2010-11-06,2.6,9.2
2010-11-07,3.8,5.2
2010-11-08,7.0,7.4
2010-11-09,1.4,6.9
2010-11-10,0.0,4.4
2010-11-11,17.0,10.9
2010-11-12,11.0,10.9
2010-11-13,2.2,8.4
2010-11-14,9.0,4.9
2010-11-15,0.0,4.2
2010-11-16,0.4,5.7
2010-11-17,20.8,8.6
2010-11-18,2.0,8.2
2010-11-19,2.8,7.6
2010-11-20,12.8,8.4
2010-11-21,0.2,5.3
2010-11-22,0.8,5.0
2010-11-23,0.0,4.9
2010-11-24,8.4,3.5
2010-11-25,0.2,0.5
2010-11-26,2.0,0.8
2010-11-27,0.0,-0.9
2010-11-28,0.0,-4.8
2010-11-29,0.0,-1.7
2010-11-30,0.4,-0.9
2010-12-01,0.0,-1.5
2010-12-02,0.0,-1.1
2010-12-03,3.6,-2.0
2010-12-04,5.8,5.2
2010-12-05,0.8,1.9
2010-12-06,0.0,-2.9
2010-12-07,0.0,-5.4
2010-12-08,0.0,-1.1
2010-12-09,0.4,0.7
2010-12-10,0.0,6.0
2010-12-11,0.0,5.7
2010-12-12,0.2,3.1
2010-12-13,0.0,0.6
2010-12-14,0.2,0.0
2010-12-15,0.2,2.8
2010-12-16,4.6,4.7
2010-12-17,0.6,-0.1
2010-12-18,0.6,-1.8
2010-12-19,0.0,-4.2
2010-12-20,0.0,-1.9
2010-12-21,0.0,-3.1
2010-12-22,0.0,-4.6
2010-12-23,0.0,-1.5
2010-12-24,0.2,-3.1
2010-12-25,0.0,-7.3
2010-12-26,0.0,-4.1
2010-12-27,2.2,3.7
2010-12-28,0.0,8.6
2010-12-29,0.4,8.2
2010-12-30,0.4,6.2
2010-12-31,0.0,4.4
2011-01-01,0.0,4.1
2011-01-02,2.4,2.0
2011-01-03,0.2,0.6
2011-01-04,0.8,3.6
2011-01-05,1.0,6.1
2011-01-06,11.4,3.5
2011-01-07,16.2,7.2
2011-01-08,4.2,5.3
2011-01-09,1.6,3.4
2011-01-10,15.6,7.4
2011-01-11,4.2,6.5
2011-01-12,23.6,11.2
2011-01-13,14.0,12.1
2011-01-14,1.0,10.3
2011-01-15,1.6,10.2
2011-01-16,6.0,10.5
2011-01-17,10.2,7.1
2011-01-18,0.4,4.2
2011-01-19,0.2,0.5
2011-01-20,0.2,0.2
2011-01-21,0.2,-1.5
2011-01-22,0.0,-0.1
2011-01-23,0.2,4.9
2011-01-24,0.0,4.3
2011-01-25,3.2,6.1
2011-01-26,0.0,5.7
2011-01-27,0.0,0.8
2011-01-28,0.0,-1.1
2011-01-29,0.0,-1.6
2011-01-30,0.0,-1.5
2011-01-31,0.2,-2.7
2011-02-01,0.0,6.4
2011-02-02,4.8,7.3
2011-02-03,0.2,7.4
2011-02-04,0.4,10.5
2011-02-05,2.2,10.8
2011-02-06,0.4,10.0
2011-02-07,2.4,8.3
2011-02-08,0.2,3.9
2011-02-09,0.2,9.1
2011-02-10,4.8,10.0
2011-02-11,1.0,10.0
2011-02-12,0.4,7.0
2011-02-13,10.0,7.5
2011-02-14,0.0,4.4
2011-02-15,11.0,5.9
2011-02-16,3.6,5.2
2011-02-17,1.0,6.6
2011-02-18,1.4,6.9
2011-02-19,3.0,8.1
2011-02-20,0.6,5.2
2011-02-21,1.8,7.5
2011-02-22,0.0,7.6
2011-02-23,4.6,10.1
2011-02-24,0.2,10.3
2011-02-25,2.6,10.9
2011-02-26,4.4,7.8
2011-02-27,0.8,5.6
2011-02-28,0.0,4.3
2011-03-01,0.0,3.7
2011-03-02,0.0,3.2
2011-03-03,0.2,1.1
2011-03-04,0.2,1.1
2011-03-05,0.0,0.7
2011-03-06,0.2,2.6
2011-03-07,0.0,3.0
2011-03-08,0.2,2.7
2011-03-09,0.8,7.2
2011-03-10,0.0,8.9
2011-03-11,0.0,7.8
2011-03-12,0.2,8.3
2011-03-13,4.2,5.4
2011-03-14,0.0,4.0
2011-03-15,0.0,10.0
2011-03-16,0.0,9.3
2011-03-17,0.2,7.8
2011-03-18,10.8,5.5
2011-03-19,0.2,4.7
2011-03-20,0.0,8.7
2011-03-21,0.0,10.2
2011-03-22,0.2,8.4
2011-03-23,0.2,8.5
2011-03-24,0.0,8.4
2011-03-25,0.0,10.6
2011-03-26,0.0,9.7
2011-03-27,0.0,9.1
2011-03-28,0.2,8.5
2011-03-29,1.4,8.7
2011-03-30,2.8,10.4
2011-03-31,3.0,12.7
2011-04-01,0.0,12.6
2011-04-02,0.2,11.9
2011-04-03,2.6,9.2
2011-04-04,0.0,8.4
2011-04-05,2.0,11.6
2011-04-06,0.0,13.6
2011-04-07,0.0,12.0
2011-04-08,0.2,13.2
2011-04-09,0.0,11.2
2011-04-10,0.0,12.1
2011-04-11,0.2,10.1
2011-04-12,0.0,7.6
2011-04-13,1.8,7.2
2011-04-14,0.2,10.2
2011-04-15,0.2,8.6
2011-04-16,0.0,9.9
2011-04-17,0.2,10.0
2011-04-18,0.0,9.6
2011-04-19,0.0,12.8
2011-04-20,0.0,14.1
2011-04-21,0.0,14.4
2011-04-22,0.2,14.7
2011-04-23,0.0,12.6
2011-04-24,0.0,11.3
2011-04-25,0.0,13.3
2011-04-26,0.0,12.1
2011-04-27,0.2,11.2
2011-04-28,0.2,9.7
2011-04-29,0.0,10.7
2011-04-30,11.6,12.5
2011-05-01,1.4,12.7
2011-05-02,0.2,11.3
2011-05-03,0.0,8.7
2011-05-04,0.0,9.3
2011-05-05,1.2,11.3
2011-05-06,6.0,14.3
2011-05-07,1.2,13.6
2011-05-08,3.4,13.1
2011-05-09,2.8,13.2
2011-05-10,0.6,12.8
2011-05-11,0.2,12.0
2011-05-12,0.2,10.4
2011-05-13,0.8,10.0
2011-05-14,0.2,10.0
2011-05-15,0.0,10.8
2011-05-16,0.0,11.8
2011-05-17,0.4,12.1
2011-05-18,1.2,12.0
2011-05-19,0.2,9.7
2011-05-20,0.0,11.4
2011-05-21,0.4,11.9
2011-05-22,3.4,11.5
2011-05-23,2.0,11.2
2011-05-24,0.2,10.7
2011-05-25,0.0,11.3
2011-05-26,5.4,10.5
2011-05-27,0.0,9.9
2011-05-28,1.8,11.3
2011-05-29,0.0,13.6
2011-05-30,4.8,11.2
2011-05-31,0.2,9.8
2011-06-01,0.0,12.3
2011-06-02,0.0,16.6
2011-06-03,0.0,17.9
2011-06-04,0.0,17.3
2011-06-05,0.4,13.3
2011-06-06,0.2,11.8
2011-06-07,3.2,11.3
2011-06-08,2.0,11.2
2011-06-09,4.8,10.7
2011-06-10,4.8,8.8
2011-06-11,4.4,9.6
2011-06-12,13.6,12.6
2011-06-13,0.4,13.3
2011-06-14,0.0,13.4
2011-06-15,1.2,15.3
2011-06-16,3.0,12.3
2011-06-17,5.8,11.6
2011-06-18,6.6,12.0
2011-06-19,0.0,13.2
2011-06-20,3.4,13.8
2011-06-21,0.4,14.6
2011-06-22,7.4,13.4
2011-06-23,4.0,12.5
2011-06-24,0.4,12.5
2011-06-25,0.6,16.5
2011-06-26,0.2,18.4
2011-06-27,3.4,16.7
2011-06-28,0.0,13.4
2011-06-29,0.8,12.2
2011-06-30,0.2,12.5
2011-07-01,0.0,13.2
2011-07-02,0.0,14.4
2011-07-03,0.0,14.9
2011-07-04,0.0,15.8
2011-07-05,1.8,15.6
2011-07-06,5.6,13.6
2011-07-07,5.4,13.7
2011-07-08,2.6,13.9
2011-07-09,0.4,14.5
2011-07-10,0.0,14.6
2011-07-11,0.0,16.3
2011-07-12,0.0,15.5
2011-07-13,0.2,14.6
2011-07-14,0.2,14.4
2011-07-15,0.6,14.4
2011-07-16,6.6,14.8
2011-07-17,16.0,13.2
2011-07-18,11.2,12.0
2011-07-19,2.8,13.6
2011-07-20,1.8,13.4
2011-07-21,0.0,14.4
2011-07-22,6.6,13.9
2011-07-23,0.0,13.9
2011-07-24,1.0,14.7
2011-07-25,0.4,17.3
2011-07-26,0.0,17.3
2011-07-27,0.0,16.8
2011-07-28,0.4,17.0
2011-07-29,0.6,17.0
2011-07-30,0.2,15.5
2011-07-31,0.0,16.7
2011-08-01,0.4,17.6
2011-08-02,0.8,17.0
2011-08-03,0.6,16.8
2011-08-04,10.8,16.9
2011-08-05,0.0,15.4
2011-08-06,1.0,14.0
2011-08-07,3.2,13.4
2011-08-08,0.6,13.9
2011-08-09,0.0,13.8
2011-08-10,0.0,15.1
2011-08-11,3.0,16.0
2011-08-12,0.8,16.7
2011-08-13,0.8,15.7
2011-08-14,0.0,14.8
2011-08-15,3.4,14.1
2011-08-16,0.6,15.8
2011-08-17,2.2,13.8
2011-08-18,5.6,12.3
2011-08-19,0.2,14.0
2011-08-20,3.0,16.8
2011-08-21,0.0,16.3
2011-08-22,0.2,15.4
2011-08-23,0.4,14.4
2011-08-24,4.2,13.5
2011-08-25,1.8,13.0
2011-08-26,27.0,10.7
2011-08-27,0.2,12.9
2011-08-28,0.8,13.3
2011-08-29,0.2,12.3
2011-08-30,0.0,12.8
2011-08-31,0.0,13.1
2011-09-01,0.0,14.7
2011-09-02,0.0,15.2
2011-09-03,0.2,16.4
2011-09-04,6.4,13.3
2011-09-05,5.2,13.6
2011-09-06,15.0,14.6
2011-09-07,3.2,13.0
2011-09-08,0.8,15.9
2011-09-09,1.4,17.7
2011-09-10,4.4,17.3
2011-09-11,5.4,15.1
2011-09-12,3.6,15.8
2011-09-13,2.0,12.8
2011-09-14,4.2,12.1
2011-09-15,0.0,11.0
2011-09-16,0.6,14.1
2011-09-17,5.6,12.4
2011-09-18,11.8,12.2
2011-09-19,0.4,13.7
2011-09-20,7.2,14.4
2011-09-21,4.8,13.1
2011-09-22,0.2,13.0
2011-09-23,0.2,12.2
2011-09-24,0.4,14.6
2011-09-25,2.4,15.7
2011-09-26,5.4,15.7
2011-09-27,0.2,14.0
2011-09-28,0.0,17.7
2011-09-29,0.4,17.0
2011-09-30,0.0,18.2
2011-10-01,0.0,17.8
2011-10-02,0.4,17.0
2011-10-03,0.0,16.8
2011-10-04,0.6,15.1
2011-10-05,8.6,16.0
2011-10-06,4.0,11.3
2011-10-07,1.4,10.9
2011-10-08,0.8,12.5
2011-10-09,1.6,14.9
2011-10-10,0.6,14.9
2011-10-11,1.4,14.5
2011-10-12,2.6,14.6
2011-10-13,0.2,15.3
2011-10-14,0.0,13.8
2011-10-15,0.2,10.6
2011-10-16,1.0,10.7
2011-10-17,4.4,12.5
2011-10-18,3.8,8.7
2011-10-19,3.4,7.4
2011-10-20,0.6,8.2
2011-10-21,0.0,10.1
2011-10-22,0.0,10.6
2011-10-23,1.0,14.9
2011-10-24,31.0,13.0
2011-10-25,4.2,9.2
2011-10-26,3.0,9.2
2011-10-27,17.8,11.0
2011-10-28,0.2,8.7
2011-10-29,0.0,10.9
2011-10-30,0.4,15.1
2011-10-31,7.6,14.5
2011-11-01,0.6,10.9
2011-11-02,5.6,13.4
2011-11-03,3.4,13.5
2011-11-04,5.0,10.7
2011-11-05,ND,ND
2011-11-06,ND,ND
2011-11-07,ND,ND
2011-11-08,ND,ND
2011-11-09,ND,ND
2011-11-10,0.2,11.8
2011-11-11,5.5,12.8
2011-11-12,1.5,12.0
2011-11-13,0.0,13.5
2011-11-14,0.4,11.2
2011-11-15,0.0,8.4
2011-11-16,5.0,10.3
2011-11-17,0.6,10.9
2011-11-18,0.0,12.4
2011-11-19,0.0,11.7
2011-11-20,0.0,11.7
2011-11-21,10.7,12.2
2011-11-22,5.9,9.6
2011-11-23,0.2,8.9
2011-11-24,0.0,11.6
2011-11-25,1.3,9.8
2011-11-26,0.0,10.4
2011-11-27,1.9,9.6
2011-11-28,1.3,8.8
2011-11-29,6.5,10.3
2011-11-30,2.5,9.2
2011-12-01,4.2,8.1
2011-12-02,7.6,6.1
2011-12-03,6.9,10.1
2011-12-04,3.6,7.9
2011-12-05,1.3,5.2
2011-12-06,12.2,6.2
2011-12-07,7.6,7.6
2011-12-08,11.3,9.1
2011-12-09,0.0,5.2
2011-12-10,0.6,4.5
2011-12-11,3.8,7.5
2011-12-12,21.8,7.0
2011-12-13,16.2,5.4
2011-12-14,5.7,4.2
2011-12-15,12.8,5.7
2011-12-16,5.9,3.9
2011-12-17,4.2,4.3
2011-12-18,1.7,3.9
2011-12-19,6.7,7.1
2011-12-20,2.7,8.2
2011-12-21,1.3,10.7
2011-12-22,0.0,10.6
2011-12-23,7.8,8.6
2011-12-24,0.6,6.6
2011-12-25,1.5,9.8
2011-12-26,0.8,9.9
2011-12-27,0.0,9.0
2011-12-28,7.8,7.7
2011-12-29,3.4,7.9
2011-12-30,18.1,9.6
2011-12-31,8.6,11.2
2012-01-01,3.4,9.7
2012-01-02,9.5,5.2
2012-01-03,35.5,8.8
2012-01-04,4.2,7.7
2012-01-05,9.5,9.3
2012-01-06,0.6,7.6
2012-01-07,1.3,8.8
2012-01-08,0.2,8.9
2012-01-09,0.0,9.8
2012-01-10,0.6,9.0
2012-01-11,0.0,8.3
2012-01-12,0.8,8.3
2012-01-13,0.2,2.8
2012-01-14,0.2,2.8
2012-01-15,0.0,4.6
2012-01-16,0.0,2.6
2012-01-17,0.2,3.4
2012-01-18,1.7,10.8
2012-01-19,4.4,9.6
2012-01-20,0.6,8.6
2012-01-21,1.5,9.5
2012-01-22,0.0,7.9
2012-01-23,2.7,6.9
2012-01-24,7.8,8.7
2012-01-25,3.2,9.0
2012-01-26,6.5,5.1
2012-01-27,4.4,5.1
2012-01-28,0.2,3.2
2012-01-29,7.6,0.8
2012-01-30,9.9,1.6
2012-01-31,0.4,0.4
2012-02-01,0.0,-0.8
2012-02-02,0.0,-2.3
2012-02-03,0.0,-3.5
2012-02-04,5.0,1.5
2012-02-05,0.0,5.5
2012-02-06,0.6,4.9
2012-02-07,0.0,2.2
2012-02-08,0.2,-2.3
2012-02-09,2.3,1.4
2012-02-10,8.6,2.8
2012-02-11,0.0,-1.4
2012-02-12,0.4,2.5
2012-02-13,0.6,5.5
2012-02-14,0.2,6.1
2012-02-15,0.0,7.6
2012-02-16,0.0,7.4
2012-02-17,0.6,8.6
2012-02-18,5.5,6.5
2012-02-19,0.2,3.3
2012-02-20,0.0,4.2
2012-02-21,0.0,8.0
2012-02-22,2.5,9.3
2012-02-23,0.6,10.2
2012-02-24,0.0,9.3
2012-02-25,1.1,8.7
2012-02-26,0.0,7.2
2012-02-27,1.1,8.9
2012-02-28,0.0,9.6
2012-02-29,0.0,10.3
2012-03-01,0.2,7.5
2012-03-02,0.2,7.3
2012-03-03,2.7,9.0
2012-03-04,11.3,5.8
2012-03-05,0.0,5.5
2012-03-06,0.6,5.2
2012-03-07,2.1,8.1
2012-03-08,0.0,7.7
2012-03-09,0.0,9.2
2012-03-10,0.2,9.4
2012-03-11,0.2,9.6
2012-03-12,0.2,9.0
2012-03-13,0.4,6.3
2012-03-14,0.0,6.0
2012-03-15,0.0,7.0
2012-03-16,0.0,8.1
2012-03-17,6.9,7.5
2012-03-18,1.1,5.9
2012-03-19,0.2,6.4
2012-03-20,0.0,8.7
2012-03-21,0.0,8.4
2012-03-22,3.2,9.2
2012-03-23,0.2,9.3
2012-03-24,0.0,11.3
2012-03-25,0.0,11.6
2012-03-26,0.0,10.1
2012-03-27,0.0,10.3
2012-03-28,0.0,11.0
2012-03-29,0.0,11.1
2012-03-30,0.0,8.7
2012-03-31,0.0,8.5
2012-04-01,0.0,6.9
2012-04-02,0.2,5.8
2012-04-03,4.4,6.5
2012-04-04,0.8,4.5
2012-04-05,0.4,5.5
2012-04-06,0.2,5.4
2012-04-07,0.8,8.9
2012-04-08,0.4,9.3
2012-04-09,18.5,9.2
2012-04-10,3.4,6.9
2012-04-11,2.3,7.2
2012-04-12,0.2,7.3
2012-04-13,2.5,6.1
2012-04-14,0.6,5.5
2012-04-15,0.0,5.9
2012-04-16,0.0,6.3
2012-04-17,10.7,8.0
2012-04-18,11.8,7.2
2012-04-19,3.6,7.1
2012-04-20,4.6,6.7
2012-04-21,1.9,7.1
2012-04-22,10.1,7.2
2012-04-23,12.8,6.2
2012-04-24,5.5,7.9
2012-04-25,35.1,8.3
2012-04-26,6.5,8.7
2012-04-27,1.9,9.4
2012-04-28,4.8,7.4
2012-04-29,30.7,6.0
2012-04-30,19.5,9.1
2012-05-01,8.4,11.2
2012-05-02,0.2,10.7
2012-05-03,3.6,8.6
2012-05-04,0.0,8.7
2012-05-05,0.8,6.9
2012-05-06,0.2,7.2
2012-05-07,8.0,10.6
2012-05-08,2.3,11.4
2012-05-09,6.9,11.1
2012-05-10,1.7,14.0
2012-05-11,0.0,9.4
2012-05-12,0.0,8.5
2012-05-13,0.2,9.6
2012-05-14,2.3,8.8
2012-05-15,0.6,7.7
2012-05-16,0.2,8.7
2012-05-17,0.6,8.7
2012-05-18,0.0,9.3
2012-05-19,0.0,11.1
2012-05-20,3.2,11.1
2012-05-21,0.2,10.3
2012-05-22,0.2,13.1
2012-05-23,0.0,13.4
2012-05-24,0.0,17.3
2012-05-25,0.2,19.6
2012-05-26,0.0,18.2
2012-05-27,4.4,14.2
2012-05-28,0.0,13.8
2012-05-29,0.0,15.5
2012-05-30,0.0,14.3
2012-05-31,0.0,14.5
2012-06-01,0.0,16.5
2012-06-02,5.3,14.5
2012-06-03,5.0,13.1
2012-06-04,0.0,11.0
2012-06-05,13.7,11.9
2012-06-06,2.7,14.0
2012-06-07,19.7,13.1
2012-06-08,13.7,11.7
2012-06-09,0.6,12.1
2012-06-10,5.3,11.8
2012-06-11,15.5,12.2
2012-06-12,11.3,12.5
2012-06-13,29.0,12.0
2012-06-14,12.0,11.3
2012-06-15,2.1,13.3
2012-06-16,5.7,12.6
2012-06-17,4.4,12.6
2012-06-18,1.1,12.9
2012-06-19,0.0,13.2
2012-06-20,11.3,11.7
